Location: Melizzano
(41.1500°N, 14.5000°E)
Time: 23:13:13
(UTC+00:00)

Cosmos 1503 Rocket - Pass Details

Date: 11 May 2021
Orbit: 752 x 791 km, 74.0° (Epoch: 24 June)

Event Time Altitude Azimuth Distance (km) Brightness Sun altitude
Rises 18:59:54 0° 191° (S) 3,186 7.0 -9.1°
Reaches altitude 10° 19:02:15 10° 189° (S) 2,267 6.2 -9.4°
Maximum altitude 19:07:20 70° 107° (ESE) 805 3.9 -10.2°
Drops below altitude 10° 19:12:31 10° 24° (NNE) 2,297 6.6 -11.0°
Sets 19:14:54 0° 22° (NNE) 3,232 7.4 -11.4°
